Location: Beetenbrück
(52.8113°N, 9.5946°E)
Time: 21:00:10
(UTC+00:00)

Spot 2 Rocket - Pass Details

Date: 14 April 2026
Orbit: 751 x 766 km, 98.3° (Epoch: 12 May)

Event Time Altitude Azimuth Distance (km) Brightness Sun altitude
Exits shadow 19:36:31 13° 148° (SSE) 2,110 5.2 -11.4°
Maximum altitude 19:41:01 62° 70° (ENE) 852 3.6 -11.9°
Drops below altitude 10° 19:45:59 10° 350° (N) 2,290 6.6 -12.5°
Sets 19:48:18 0° 348° (NNW) 3,218 7.5 -12.8°
